Location: ?????
(38.3715°N, 23.0573°E)
Time: 10:17:27
(UTC+00:00)

Cosmos 1452 Rocket - Pass Details

Date: 03 August 2024
Orbit: 764 x 773 km, 74.1° (Epoch: 14 September)

Event Time Altitude Azimuth Distance (km) Brightness Sun altitude
Exits shadow 19:59:47 56° 96° (E) 908 3.6 -23.7°
Drops below altitude 10° 20:04:44 10° 27° (NNE) 2,315 6.2 -24.3°
Sets 20:07:09 0° 23° (NNE) 3,247 7.1 -24.6°
